Regional Weather Roundup
Issued by NWS Charleston, SC

Current Version | Previous Version | Graphics & Text | Print | Product List | Glossary On
Versions: 1 2 3 4 5 6 7 8 9 10 11 12 13 14 15 16 17 18 19 20 21 22 23 24 25 26 27 28 29 30 31 32 33 34 35 36 37 38 39 40 41 42 43 44 45 46 47 48 49 50
000 ASUS42 KCHS 282012 RWRCHS REGIONAL WEATHER ROUNDUP NATIONAL WEATHER SERVICE CHARLESTON SC 300 PM EST SAT FEB 28 2015 NOTE: "FAIR" INDICATES FEW OR NO CLOUDS BELOW 12,000 FEET WITH NO SIGNIFICANT WEATHER AND/OR OBSTRUCTIONS TO VISIBILITY. NOT ALL STATIONS ARE QUALITY CONTROLLED BY THE NATIONAL WEATHER SERVICE. USE DATA WITH CAUTION...ESPECIALLY DEWPOINT OBSERVATIONS. SCZ027-030-031-034>040-042>050-282100- ...SOUTHEAST SOUTH CAROLINA... CITY SKY/WX TMP DP RH WIND PRES REMARKS N CHARLESTON CLOUDY 51 26 37 NE9 30.56F WATERFRONT PRK NOT AVBL MOUNT PLEASANT CLOUDY 50 27 40 NE3 30.56F PINOPOLIS N/A 52 36 54 NE13 30.49F MONCKS CORNER CLOUDY 55 28 35 NE9 30.56F SUMMERVILLE CLOUDY 52 32 46 N10G16 30.57S BEAUFORT MCAS LGT RAIN 46 38 73 NE9 30.54F BEAUFORT ARPT CLOUDY 46 36 66 NE17G23 30.54S HILTON HEAD IS CLOUDY 45 41 87 NE7 30.54F FOG WALTERBORO DRIZZLE 52 32 46 NE10 30.56F ALLENDALE CLOUDY 52 30 43 NE7 30.55S ...SOUTHERN MIDLANDS AND PEE DEE... CITY SKY/WX TMP DP RH WIND PRES REMARKS GEORGETOWN NOT AVBL KINGSTREE NOT AVBL ORANGEBURG MOSUNNY 53 27 36 NE14 30.57F BARNWELL CLOUDY 54 32 43 NE10 30.57R AIKEN FAIR 52 30 43 NE13 30.59F MANNING FAIR 54 28 37 N12G17 30.58F COLUMBIA PTSUNNY 51 26 37 NE13G18 30.59F SUMTER CLOUDY 50 25 38 NE17 30.58F FLORENCE SUNNY 50 24 36 NE12 30.62F MYRTLE BEACH PTSUNNY 52 25 35 NE13 30.62S N MYRTLE BEACH CLOUDY 51 24 34 NE14 30.59F $$ GAZ063-065-086>088-099>101-113>116-118-119-134>141-150-282100- ...SOUTHEAST GEORGIA... CITY SKY/WX TMP DP RH WIND PRES REMARKS SAVANNAH ARPT CLOUDY 45 36 70 NE13 30.53F HUNTER AAF CLOUDY 45 39 81 NE8 30.50R FORT STEWART LGT RAIN 45 39 81 NE12 30.49F STATESBORO RAIN 45 41 86 E6 30.53F SYLVANIA RAIN 49 38 67 E7 30.55R CLAXTON DRIZZLE 43 43 100 NE7 30.53F ...CSRA...CENTRAL AND FAR SOUTHEAST GEORGIA... CITY SKY/WX TMP DP RH WIND PRES REMARKS THOMSON SUNNY 53 35 50 NE7 30.59F AUGUSTA-BUSH SUNNY 55 28 35 NE14 30.55F AUGUSTA-DANIEL MOSUNNY 54 28 36 N14 30.55F SWAINSBORO RAIN 50 30 46 E6 30.54S VIDALIA DRIZZLE 45 43 93 NE6 30.53S EASTMAN LGT RAIN 45 44 95 E9 30.53F HAZLEHURST LGT RAIN 45 44 95 NE10G17 30.49F ALMA LGT RAIN 44 42 93 VRB7 30.48F FOG WAYCROSS HVY RAIN 48 47 97 NE8 30.47S JESUP LGT RAIN 46 45 93 NE12 30.49F BAXLEY RAIN 45 43 93 NE8G16 30.50S BRUNSWICK CLOUDY 45 43 93 NE18G25 30.48S SAINT SIMONS CLOUDY 46 44 93 NE20G30 30.46S FOG $$ SCZ027-028-034-036>038-045-046-048>050-GAZ119-141-282100- ...LAKE AND SUPPLEMENTAL COASTAL OBSERVATIONS... STATION/POSITION TIME TEMP WIND PRES WAVE SWELL AIR SEA DIR/SP/G HT/PER HT/PER/DIR (UTC) (F) (DEG/KT/KT) (MB) (FT/S) (FT/S/D) UPR LAKE MARION NOT AVBL WINYAH BAY NOT AVBL LAKE MURRAY 1900 45 50/ 4/ 7 1035.9F ACE BASIN NERRS NOT AVBL FORT PULASKI 1900 44 49 30/ 16/ 19 1034.2 SAPELO ISLAND 1900 44 30/ 19 1032.0F $$ ANZ835-935-AMZ111-154-330-350-352-354-370-450-454-472-282100- ...C-MAN AND BUOY OBSERVATIONS... STATION/POSITION TIME TEMP WIND PRES WAVE SWELL AIR SEA DIR/SP/G HT/PER HT/PER/DIR (UTC) (F) (DEG/KT/KT) (MB) (FT/S) (FT/S/D) BUOY 41004 1950 52 66 40/ 29/ 35 1032.1F 10/ 8 3/15 BUOY 41008 1950 50 52 40/ 27/ 33 1030.3F 9/ 8 2/ 80/10 FOLLY BEACH CMAN 2000 46 40/ 17/ 21 1035.2F CAPERS NEARSHORE NOT AVBL FRIPP NEARSHORE 1900 45 50/ 25/ 29 1032.4F STATION/POSITION TIME TEMP WIND PRES WAVE SWELL AIR SEA DIR/SP/G HT/PER HT/PER/DIR (UTC) (F) (DEG/KT/KT) (MB) (FT/S) (FT/S/D) 5E ST. MARYS GA 1921 53 N/A 7/ 7 2/ 90/11 FRYING PAN BUOY 1950 47 62 40/ 25/ 31 1035.5R 9/ 8 BUOY 41025 NOT AVBL CAPE LOOKOUT NC 2000 40 30/ 21/ 26 1037.8F BUOY 41002 1950 65 69 60/ 19/ 23 1031.7S 9/ 9 5/ 10/ 9 BUOY 41010 1920 71 72 70/ 21/ 25 1027.0F ST AUGUSTINE FL 2000 56 350/ 12/ 14 1028.8F $$

USA.gov is the U.S. government's official web portal to all federal, state and local government web resources and services.